アトラス彗星

C/2021 S1 ( ATLAS )

English version
Home page
Updated on May 29, 2022

---------------------------------------------------------------------

・ プロフィール

発見日 2021年9月27日
発見光度 17.8等
発見者 Asteroid Terrestrial-Impact Last Alert System (ATLAS) search program

・ 写真集

・ 軌道要素

Epoch 2022 Jan. 21.0 TT = JDT 2459600.5
T 2022 Feb. 28.90826 TT                                 Rudenko
q   6.1192136            (2000.0)            P               Q
z  -0.0001277      Peri.  148.18568     -0.14237717     -0.71531108
 +/-0.0000082      Node   299.87278     +0.65862380     +0.44749783
e   1.0007816      Incl.   52.09000     +0.73887985     -0.53672689
From 349 observations 2021 Sept. 27-2022 Apr. 7, mean residual 0".4.

・ 光度変化

        m1 = 6.5 + 5 logΔ + 10.0 log r

---------------------------------------------------------------------

軌道要素はM.P.E.C. 2022-G109に掲載されたものです。
光度グラフはComet for Windowsで作成したものです。

---------------------------------------------------------------------

Copyright(C) Seiichi Yoshida (comet@aerith.net). All rights reserved.